CW1648 Weather Reports


Display with metric or nautical units.
time (UTC)temp
F
wind
direction
speed
MPH
gust
MPH
rain 1hr
in
rain 24hr
in
rain mn
in
humidity
%
barometer
mb
20260503222416 62 0 0.0 11.0 0.00 0.00 0.00 32 1009.6
20260503222205 62 248 0.0 11.0 0.00 0.00 0.00 31 1009.6
20260503222104 62 265 0.0 14.0 0.00 0.00 0.00 31 1009.5
20260503222020 62 290 0.0 14.0 0.00 0.00 0.00 31 1009.4
20260503222004 62 288 0.0 14.0 0.00 0.00 0.00 31 1009.6
20260503221905 62 246 0.0 14.0 0.00 0.00 0.00 31 1009.5
20260503221803 62 236 0.0 14.0 0.00 0.00 0.00 31 1009.5
20260503221703 62 225 0.0 14.0 0.00 0.00 0.00 31 1009.5
20260503221602 62 0 0.0 14.0 0.00 0.00 0.00 32 1009.5
20260503221520 62 360 0.0 14.0 0.00 0.00 0.00 32 1009.2
20260503221501 62 0 0.0 14.0 0.00 0.00 0.00 31 1009.4
20260503221406 62 0 0.0 14.0 0.00 0.00 0.00 31 1009.5
20260503221400 62 0 0.0 14.0 0.00 0.00 0.00 31 1009.5
20260503221300 62 0 0.0 14.0 0.00 0.00 0.00 30 1009.5
20260503221200 62 0 0.0 14.0 0.00 0.00 0.00 30 1009.5
20260503221059 62 268 0.0 9.0 0.00 0.00 0.00 30 1009.5
20260503221035 62 237 0.0 9.0 0.00 0.00 0.00 31 1009.2
20260503220958 62 248 0.0 9.0 0.00 0.00 0.00 31 1009.4
20260503220904 62 223 0.0 8.0 0.00 0.00 0.00 31 1009.5
20260503220859 62 221 0.0 8.0 0.00 0.00 0.00 31 1009.5
20260503220757 62 263 0.0 8.0 0.00 0.00 0.00 31 1009.5
20260503220657 62 0 0.0 8.0 0.00 0.00 0.00 31 1009.5
20260503220556 62 0 0.0 8.0 0.00 0.00 0.00 30 1009.5
20260503220535 62 360 0.0 8.0 0.00 0.00 0.00 30 1009.3
20260503220456 62 0 0.0 8.0 0.00 0.00 0.00 30 1009.5
20260503220401 62 0 0.0 8.0 0.00 0.00 0.00 30 1009.5
20260503220356 62 0 0.0 8.0 0.00 0.00 0.00 31 1009.5
20260503220253 62 0 0.0 8.0 0.00 0.00 0.00 31 1009.5
20260503220153 62 0 0.0 8.0 0.00 0.00 0.00 31 1009.5
20260503220053 62 0 0.0 6.0 0.00 0.00 0.00 31 1009.6
20260503220020 62 360 0.0 14.0 0.00 0.00 0.00 32 1009.4
20260503215951 62 0 1.0 15.0 0.00 0.00 0.00 32 1009.6
20260503215858 62 0 1.0 15.0 0.00 0.00 0.00 32 1009.5
20260503215850 62 0 1.0 15.0 0.00 0.00 0.00 31 1009.5
20260503215749 62 0 1.0 15.0 0.00 0.00 0.00 30 1009.5
20260503215649 62 0 1.0 15.0 0.00 0.00 0.00 31 1009.5
20260503215549 62 0 1.0 15.0 0.00 0.00 0.00 31 1009.5
20260503215520 62 360 0.0 15.0 0.00 0.00 0.00 30 1009.4
20260503215447 62 0 1.0 15.0 0.00 0.00 0.00 30 1009.6
20260503215406 62 0 1.0 15.0 0.00 0.00 0.00 31 1009.5
20260503215355 62 0 1.0 15.0 0.00 0.00 0.00 30 1009.5
20260503215146 62 0 1.0 15.0 0.00 0.00 0.00 29 1009.5
20260503215100 62 225 0.0 12.0 0.00 0.00 0.00 30 1009.5
20260503215054 62 0 1.0 15.0 0.00 0.00 0.00 29 1009.5
20260503215020 62 281 14.0 15.0 0.00 0.00 0.00 30 1009.3
20260503214859 62 246 0.0 9.0 0.00 0.00 0.00 29 1009.5
20260503214845 62 298 0.0 9.0 0.00 0.00 0.00 29 1009.5
20260503214744 62 226 0.0 9.0 0.00 0.00 0.00 30 1009.5
20260503214644 62 260 0.0 3.0 0.00 0.00 0.00 31 1009.5
20260503214543 62 276 0.0 7.0 0.00 0.00 0.00 31 1009.5
20260503214520 62 286 0.0 7.0 0.00 0.00 0.00 31 1009.3
20260503214443 62 254 0.0 7.0 0.00 0.00 0.00 31 1009.5
20260503214402 62 250 0.0 7.0 0.00 0.00 0.00 30 1009.5
20260503214358 62 264 0.0 7.0 0.00 0.00 0.00 31 1009.4
20260503214351 62 267 0.0 7.0 0.00 0.00 0.00 31 1009.4
20260503214142 62 284 0.0 7.0 0.00 0.00 0.00 30 1009.5
20260503214123 62 250 1.0 9.0 0.00 0.00 0.00 31 1009.5
20260503214041 62 289 1.0 9.0 0.00 0.00 0.00 30 1009.5
20260503214035 62 238 0.0 9.0 0.00 0.00 0.00 30 1009.3
20260503214007 62 291 1.0 9.0 0.00 0.00 0.00 30 1009.5
20260503213840 62 302 1.0 9.0 0.00 0.00 0.00 31 1009.5
20260503213738 62 232 1.0 9.0 0.00 0.00 0.00 30 1009.4
20260503213638 62 195 1.0 9.0 0.00 0.00 0.00 32 1009.4
20260503213536 62 241 1.0 9.0 0.00 0.00 0.00 32 1009.4
20260503213436 62 294 1.0 9.0 0.00 0.00 0.00 30 1009.4
20260503213359 62 272 1.0 9.0 0.00 0.00 0.00 30 1009.3
20260503213336 62 243 1.0 9.0 0.00 0.00 0.00 30 1009.3
20260503213235 62 241 1.0 13.0 0.00 0.00 0.00 30 1009.4
20260503213135 62 259 1.0 13.0 0.00 0.00 0.00 30 1009.4
20260503213050 62 238 1.0 13.0 0.00 0.00 0.00 33 1009.4
20260503213045 62 211 0.0 13.0 0.00 0.00 0.00 31 1009.3
20260503213035 62 268 0.0 13.0 0.00 0.00 0.00 31 1009.2
20260503212856 62 247 1.0 13.0 0.00 0.00 0.00 32 1009.4
20260503212851 62 0 1.0 13.0 0.00 0.00 0.00 30 1009.5
20260503212846 62 225 1.0 13.0 0.00 0.00 0.00 32 1009.4
20260503212634 62 0 1.0 13.0 0.00 0.00 0.00 31 1009.4
20260503212535 62 0 1.0 13.0 0.00 0.00 0.00 31 1009.4
20260503212520 62 360 0.0 13.0 0.00 0.00 0.00 31 1009.2
20260503212434 62 0 1.0 13.0 0.00 0.00 0.00 30 1009.4
20260503212348 62 0 1.0 11.0 0.00 0.00 0.00 30 1009.4
20260503212342 62 0 1.0 13.0 0.00 0.00 0.00 30 1009.4
20260503212133 62 0 1.0 15.0 0.00 0.00 0.00 29 1009.4
20260503212114 61 0 1.0 15.0 0.00 0.00 0.00 31 1009.5
20260503212032 62 0 1.0 15.0 0.00 0.00 0.00 29 1009.5
20260503212020 61 360 0.0 15.0 0.00 0.00 0.00 31 1009.3
20260503212002 61 0 1.0 15.0 0.00 0.00 0.00 31 1009.5
20260503211831 61 0 1.0 15.0 0.00 0.00 0.00 31 1009.5
20260503211730 61 0 1.0 15.0 0.00 0.00 0.00 31 1009.4
20260503211630 61 0 1.0 15.0 0.00 0.00 0.00 31 1009.4
20260503211530 61 0 1.0 15.0 0.00 0.00 0.00 31 1009.4
20260503211520 61 360 0.0 15.0 0.00 0.00 0.00 30 1009.3
20260503211428 61 0 1.0 15.0 0.00 0.00 0.00 30 1009.5
20260503211328 61 0 1.0 15.0 0.00 0.00 0.00 30 1009.4
20260503211228 61 0 1.0 15.0 0.00 0.00 0.00 30 1009.3
20260503211214 61 0 1.0 14.0 0.00 0.00 0.00 30 1009.4
20260503211211 61 0 1.0 14.0 0.00 0.00 0.00 29 1009.4
20260503211205 61 0 1.0 14.0 0.00 0.00 0.00 29 1009.4
20260503211159 61 0 1.0 14.0 0.00 0.00 0.00 32 1009.4
20260503211041 61 0 1.0 14.0 0.00 0.00 0.00 29 1009.5
20260503211035 61 360 0.0 13.0 0.00 0.00 0.00 30 1009.3
20260503210725 61 0 1.0 14.0 0.00 0.00 0.00 29 1009.4
20260503210643 61 0 1.0 14.0 0.00 0.00 0.00 30 1009.4
20260503210638 61 0 0.0 14.0 0.00 0.00 0.00 31 1009.4
20260503210633 61 0 1.0 14.0 0.00 0.00 0.00 31 1009.4
20260503210520 61 360 0.0 12.0 0.00 0.00 0.00 30 1009.2
20260503210501 60 0 1.0 14.0 0.00 0.00 0.00 29 1009.4
20260503210324 61 0 0.0 14.0 0.00 0.00 0.00 31 1009.4
20260503210238 61 0 1.0 11.0 0.00 0.00 0.00 31 1009.4
20260503210232 61 0 1.0 11.0 0.00 0.00 0.00 29 1009.4
20260503210023 61 0 1.0 11.0 0.00 0.00 0.00 31 1009.4
20260503210020 61 360 0.0 11.0 0.00 0.00 0.00 31 1009.3
20260503205936 61 0 1.0 11.0 0.00 0.00 0.00 30 1009.5
20260503205927 61 0 1.0 11.0 0.00 0.00 0.00 30 1009.5
20260503205746 61 0 0.0 11.0 0.00 0.00 0.00 30 1009.4
20260503205741 61 0 1.0 11.0 0.00 0.00 0.00 30 1009.3
20260503205628 61 0 1.0 11.0 0.00 0.00 0.00 30 1009.3
20260503205535 61 360 0.0 11.0 0.00 0.00 0.00 30 1009.3
20260503205459 62 0 0.0 11.0 0.00 0.00 0.00 30 1009.5
20260503205331 62 0 0.0 6.0 0.00 0.00 0.00 31 1009.4
20260503205326 62 0 0.0 11.0 0.00 0.00 0.00 30 1009.4
20260503205116 61 0 0.0 9.0 0.00 0.00 0.00 30 1009.4
20260503205059 61 0 0.0 9.0 0.00 0.00 0.00 31 1009.6
20260503205052 61 0 0.0 9.0 0.00 0.00 0.00 31 1009.4
20260503205020 61 360 0.0 9.0 0.00 0.00 0.00 31 1009.3
20260503204939 61 0 0.0 9.0 0.00 0.00 0.00 31 1009.5
20260503204931 61 0 0.0 9.0 0.00 0.00 0.00 31 1009.5
20260503204628 61 0 1.0 17.0 0.00 0.00 0.00 32 1009.6
20260503204623 61 0 1.0 17.0 0.00 0.00 0.00 31 1009.5
20260503204520 61 360 0.0 16.0 0.00 0.00 0.00 32 1009.4
20260503204412 61 0 1.0 17.0 0.00 0.00 0.00 31 1009.6
20260503204351 61 0 1.0 17.0 0.00 0.00 0.00 31 1009.6
20260503204328 61 0 1.0 17.0 0.00 0.00 0.00 31 1009.7
20260503204323 61 0 1.0 17.0 0.00 0.00 0.00 30 1009.6
20260503204112 61 0 1.0 17.0 0.00 0.00 0.00 31 1009.6
20260503204021 61 360 0.0 16.0 0.00 0.00 0.00 31 1009.4
20260503204012 61 0 1.0 17.0 0.00 0.00 0.00 31 1009.6
20260503203912 61 0 1.0 17.0 0.00 0.00 0.00 30 1009.6
20260503203849 61 0 1.0 17.0 0.00 0.00 0.00 30 1009.6
20260503203825 61 0 1.0 9.0 0.00 0.00 0.00 32 1009.5
20260503203820 61 0 0.0 17.0 0.00 0.00 0.00 31 1009.6
20260503203608 61 0 1.0 9.0 0.00 0.00 0.00 32 1009.5
20260503203520 61 360 0.0 9.0 0.00 0.00 0.00 31 1009.3
20260503203507 61 0 1.0 9.0 0.00 0.00 0.00 29 1009.5
20260503203406 61 0 1.0 9.0 0.00 0.00 0.00 29 1009.5
20260503203349 61 0 1.0 9.0 0.00 0.00 0.00 29 1009.5
20260503203306 61 0 1.0 9.0 0.00 0.00 0.00 30 1009.6
20260503203246 61 0 1.0 9.0 0.00 0.00 0.00 30 1009.7
20260503203241 61 0 1.0 14.0 0.00 0.00 0.00 30 1009.7
20260503203237 61 0 1.0 14.0 0.00 0.00 0.00 31 1009.7
20260503203231 61 0 1.0 9.0 0.00 0.00 0.00 29 1009.6
20260503203036 61 360 0.0 12.0 0.00 0.00 0.00 30 1009.5
20260503202847 61 0 1.0 14.0 0.00 0.00 0.00 31 1009.7
20260503202803 61 0 1.0 14.0 0.00 0.00 0.00 30 1009.7
20260503202702 61 0 1.0 14.0 0.00 0.00 0.00 30 1009.7
20260503202601 61 0 1.0 14.0 0.00 0.00 0.00 31 1009.6
20260503202528 61 0 1.0 14.0 0.00 0.00 0.00 32 1009.7
20260503202521 61 360 4.0 12.0 0.00 0.00 0.00 32 1009.5
20260503202408 61 0 1.0 14.0 0.00 0.00 0.00 31 1009.6
20260503202200 61 0 1.0 14.0 0.00 0.00 0.00 30 1009.6
20260503202112 61 0 1.0 9.0 0.00 0.00 0.00 32 1009.7
20260503202059 61 0 0.0 14.0 0.00 0.00 0.00 32 1009.7
20260503202020 61 360 0.0 9.0 0.00 0.00 0.00 32 1009.5
20260503202003 61 0 1.0 9.0 0.00 0.00 0.00 32 1009.7
20260503201954 61 0 1.0 9.0 0.00 0.00 0.00 32 1009.7
20260503201758 61 0 1.0 9.0 0.00 0.00 0.00 32 1009.7
20260503201710 61 0 0.0 9.0 0.00 0.00 0.00 31 1009.7
20260503201705 61 0 1.0 9.0 0.00 0.00 0.00 30 1009.8
20260503201542 61 0 0.0 6.0 0.00 0.00 0.00 30 1009.7
20260503201537 61 0 0.0 6.0 0.00 0.00 0.00 32 1009.8
20260503201532 61 0 1.0 6.0 0.00 0.00 0.00 30 1009.8
20260503201527 61 0 0.0 6.0 0.00 0.00 0.00 31 1009.7
20260503201520 61 360 0.0 6.0 0.00 0.00 0.00 31 1009.5
20260503201411 61 0 0.0 6.0 0.00 0.00 0.00 31 1009.7
20260503201053 61 0 1.0 18.0 0.00 0.00 0.00 29 1009.7
20260503201020 61 360 0.0 18.0 0.00 0.00 0.00 30 1009.6
20260503200953 61 0 1.0 18.0 0.00 0.00 0.00 30 1009.8
20260503200844 61 0 1.0 18.0 0.00 0.00 0.00 33 1009.8
20260503200752 61 0 1.0 18.0 0.00 0.00 0.00 33 1009.8
20260503200651 61 0 1.0 18.0 0.00 0.00 0.00 32 1009.8
20260503200551 61 0 1.0 18.0 0.00 0.00 0.00 31 1009.8
20260503200520 61 360 0.0 18.0 0.00 0.00 0.00 31 1009.6
20260503200518 61 0 1.0 18.0 0.00 0.00 0.00 31 1009.8
20260503200358 61 0 1.0 18.0 0.00 0.00 0.00 31 1009.8
20260503200150 62 219 1.0 18.0 0.00 0.00 0.00 31 1009.8
20260503200050 62 290 1.0 12.0 0.00 0.00 0.00 30 1009.9
20260503200020 62 275 0.0 12.0 0.00 0.00 0.00 30 1009.7
20260503195948 62 307 0.0 12.0 0.00 0.00 0.00 34 1009.9
20260503195844 62 275 1.0 19.0 0.00 0.00 0.00 33 1009.8
20260503195746 62 288 1.0 19.0 0.00 0.00 0.00 32 1009.9
20260503195700 62 304 1.0 19.0 0.00 0.00 0.00 34 1009.9
20260503195655 62 289 1.0 19.0 0.00 0.00 0.00 31 1009.8
20260503195520 61 275 0.0 19.0 0.00 0.00 0.00 34 1009.6
20260503195447 61 246 1.0 19.0 0.00 0.00 0.00 33 1009.8
20260503195344 61 296 1.0 19.0 0.00 0.00 0.00 32 1009.9
20260503195321 61 248 1.0 19.0 0.00 0.00 0.00 32 1009.8
20260503195316 61 313 1.0 19.0 0.00 0.00 0.00 31 1009.8
20260503195105 61 360 0.0 19.0 0.00 0.00 0.00 32 1009.7
20260503195053 61 0 1.0 19.0 0.00 0.00 0.00 32 1009.9
20260503194844 61 283 1.0 14.0 0.00 0.00 0.00 32 1009.9
20260503194742 61 226 1.0 14.0 0.00 0.00 0.00 32 1009.8
20260503194641 61 244 0.0 14.0 0.00 0.00 0.00 33 1009.8
20260503194541 61 245 0.0 8.0 0.00 0.00 0.00 32 1009.8
20260503194520 61 264 0.0 8.0 0.00 0.00 0.00 31 1009.7
20260503194439 61 272 0.0 8.0 0.00 0.00 0.00 33 1009.9
20260503194344 61 232 0.0 8.0 0.00 0.00 0.00 31 1009.9
20260503194338 61 250 0.0 8.0 0.00 0.00 0.00 31 1009.9
20260503194239 61 268 0.0 8.0 0.00 0.00 0.00 33 1009.9
20260503194138 61 296 1.0 8.0 0.00 0.00 0.00 32 1010.0
20260503194038 61 0 1.0 8.0 0.00 0.00 0.00 33 1010.0
20260503194020 61 180 2.0 8.0 0.00 0.00 0.00 34 1009.8
20260503193937 61 254 1.0 8.0 0.00 0.00 0.00 33 1010.0
20260503193837 61 0 1.0 12.0 0.00 0.00 0.00 31 1010.0
20260503193736 61 0 1.0 12.0 0.00 0.00 0.00 31 1009.9
20260503193706 61 263 2.0 13.0 0.00 0.00 0.00 31 1010.1
20260503193635 61 0 1.0 12.0 0.00 0.00 0.00 31 1010.0
20260503193603 61 210 2.0 14.0 0.00 0.00 0.00 31 1010.1
20260503193557 61 0 1.0 12.0 0.00 0.00 0.00 31 1010.1
20260503193548 61 298 2.0 13.0 0.00 0.00 0.00 32 1010.1
20260503193520 61 360 0.0 12.0 0.00 0.00 0.00 32 1009.9
20260503193233 61 331 2.0 14.0 0.00 0.00 0.00 32 1010.1
20260503193133 61 0 1.0 14.0 0.00 0.00 0.00 34 1010.2
20260503193105 61 273 2.0 16.0 0.00 0.00 0.00 32 1010.1
20260503193100 61 221 2.0 16.0 0.00 0.00 0.00 30 1010.1
20260503193055 61 182 2.0 14.0 0.00 0.00 0.00 32 1010.1
20260503193020 61 158 0.0 16.0 0.00 0.00 0.00 32 1009.9
20260503192938 61 322 2.0 16.0 0.00 0.00 0.00 30 1010.1
20260503192731 61 260 2.0 16.0 0.00 0.00 0.00 31 1010.0
20260503192631 61 217 2.0 16.0 0.00 0.00 0.00 31 1010.1
20260503192528 61 275 2.0 16.0 0.00 0.00 0.00 32 1010.1
20260503192521 61 240 1.0 17.0 0.00 0.00 0.00 32 1009.9
20260503192429 61 251 2.0 17.0 0.00 0.00 0.00 34 1010.1
20260503192340 61 262 2.0 17.0 0.00 0.00 0.00 34 1010.0
20260503192328 61 245 2.0 17.0 0.00 0.00 0.00 34 1010.0
20260503192241 61 263 2.0 17.0 0.00 0.00 0.00 31 1010.0
20260503192236 61 257 2.0 17.0 0.00 0.00 0.00 32 1010.0
20260503192101 61 270 1.0 17.0 0.00 0.00 0.00 32 1010.0
20260503192026 61 248 2.0 17.0 0.00 0.00 0.00 31 1010.0
20260503192021 61 212 16.0 17.0 0.00 0.00 0.00 31 1009.9
20260503191947 61 296 1.0 17.0 0.00 0.00 0.00 30 1010.1
20260503191825 61 263 1.0 17.0 0.00 0.00 0.00 32 1010.0
20260503191751 61 207 1.0 17.0 0.00 0.00 0.00 33 1010.1
20260503191747 61 283 1.0 17.0 0.00 0.00 0.00 32 1010.2
20260503191741 61 261 1.0 17.0 0.00 0.00 0.00 34 1010.1
20260503191521 61 360 1.0 12.0 0.00 0.00 0.00 32 1009.9
20260503191442 61 271 1.0 12.0 0.00 0.00 0.00 32 1010.2
20260503191437 61 226 1.0 12.0 0.00 0.00 0.00 32 1010.1
20260503191429 61 0 1.0 12.0 0.00 0.00 0.00 32 1010.2
20260503191222 61 0 1.0 12.0 0.00 0.00 0.00 33 1010.2
20260503191121 61 0 1.0 12.0 0.00 0.00 0.00 34 1010.1
20260503191020 61 0 0.0 10.0 0.00 0.00 0.00 32 1010.2
20260503190920 61 0 0.0 10.0 0.00 0.00 0.00 32 1010.3
20260503190839 60 0 0.0 10.0 0.00 0.00 0.00 33 1010.2
20260503190819 60 0 0.0 8.0 0.00 0.00 0.00 33 1010.2
20260503190733 60 0 1.0 13.0 0.00 0.00 0.00 35 1010.3
20260503190727 60 0 1.0 13.0 0.00 0.00 0.00 35 1010.2
20260503190521 60 360 0.0 13.0 0.00 0.00 0.00 35 1010.0
20260503190518 60 0 1.0 13.0 0.00 0.00 0.00 35 1010.3
20260503190437 60 0 1.0 13.0 0.00 0.00 0.00 34 1010.2
20260503190431 60 0 1.0 13.0 0.00 0.00 0.00 35 1010.2
20260503190423 60 0 1.0 13.0 0.00 0.00 0.00 34 1010.2
20260503190216 60 0 1.0 17.0 0.00 0.00 0.00 33 1010.2
20260503190116 60 0 1.0 17.0 0.00 0.00 0.00 34 1010.2
20260503190020 60 360 0.0 17.0 0.00 0.00 0.00 32 1010.1
20260503190015 60 0 1.0 17.0 0.00 0.00 0.00 32 1010.3
20260503185930 60 0 1.0 17.0 0.00 0.00 0.00 31 1010.3
20260503185922 60 0 1.0 17.0 0.00 0.00 0.00 31 1010.4
20260503185729 60 0 1.0 17.0 0.00 0.00 0.00 32 1010.3
20260503185724 60 0 1.0 17.0 0.00 0.00 0.00 32 1010.4
20260503185528 60 0 1.0 17.0 0.00 0.00 0.00 32 1010.5
20260503185523 60 0 1.0 17.0 0.00 0.00 0.00 31 1010.4
20260503185520 60 360 0.0 17.0 0.00 0.00 0.00 31 1010.2
20260503185336 60 0 1.0 17.0 0.00 0.00 0.00 32 1010.5
20260503185313 60 0 1.0 17.0 0.00 0.00 0.00 33 1010.3
20260503185213 60 0 1.0 13.0 0.00 0.00 0.00 32 1010.4
20260503185112 59 0 2.0 13.0 0.00 0.00 0.00 31 1010.3
20260503185021 59 360 1.0 15.0 0.00 0.00 0.00 32 1010.2
20260503185011 59 0 1.0 18.0 0.00 0.00 0.00 32 1010.4
20260503184911 59 0 1.0 18.0 0.00 0.00 0.00 35 1010.5
20260503184834 59 0 1.0 18.0 0.00 0.00 0.00 35 1010.5
20260503184809 59 0 1.0 18.0 0.00 0.00 0.00 36 1010.4
20260503184710 59 0 1.0 18.0 0.00 0.00 0.00 33 1010.4
20260503184607 59 0 2.0 18.0 0.00 0.00 0.00 33 1010.3
20260503184554 59 0 2.0 18.0 0.00 0.00 0.00 32 1010.4
20260503184520 59 360 0.0 15.0 0.00 0.00 0.00 31 1010.2
20260503184507 59 0 2.0 18.0 0.00 0.00 0.00 31 1010.3
20260503184441 59 0 2.0 18.0 0.00 0.00 0.00 32 1010.4
20260503184306 59 0 1.0 18.0 0.00 0.00 0.00 32 1010.3
20260503184208 59 0 1.0 18.0 0.00 0.00 0.00 33 1010.4
20260503184108 59 0 1.0 18.0 0.00 0.00 0.00 32 1010.4
20260503184034 59 0 1.0 15.0 0.00 0.00 0.00 32 1010.4
20260503184022 59 360 0.0 14.0 0.00 0.00 0.00 32 1010.3
20260503183921 59 0 1.0 15.0 0.00 0.00 0.00 31 1010.3
20260503183911 59 0 1.0 15.0 0.00 0.00 0.00 33 1010.3
20260503183732 59 0 2.0 15.0 0.00 0.00 0.00 30 1010.4
20260503183727 59 0 2.0 14.0 0.00 0.00 0.00 33 1010.3
20260503183723 59 0 2.0 14.0 0.00 0.00 0.00 34 1010.3
20260503183719 59 0 2.0 14.0 0.00 0.00 0.00 32 1010.3
20260503183715 59 0 2.0 15.0 0.00 0.00 0.00 32 1010.4
20260503183556 59 0 2.0 14.0 0.00 0.00 0.00 32 1010.5
20260503183520 59 360 2.0 14.0 0.00 0.00 0.00 32 1010.3
20260503183333 59 0 2.0 14.0 0.00 0.00 0.00 32 1010.4
20260503183110 59 0 2.0 14.0 0.00 0.00 0.00 32 1010.4
20260503183020 59 360 0.0 14.0 0.00 0.00 0.00 33 1010.3
20260503182901 59 0 2.0 14.0 0.00 0.00 0.00 32 1010.5
20260503182829 59 0 2.0 14.0 0.00 0.00 0.00 32 1010.5
20260503182800 59 0 2.0 14.0 0.00 0.00 0.00 32 1010.6
20260503182658 59 0 2.0 14.0 0.00 0.00 0.00 32 1010.5
20260503182558 59 0 1.0 14.0 0.00 0.00 0.00 33 1010.5
20260503182521 59 360 1.0 13.0 0.00 0.00 0.00 33 1010.4
20260503182458 59 0 1.0 13.0 0.00 0.00 0.00 33 1010.5
20260503182357 59 0 1.0 13.0 0.00 0.00 0.00 32 1010.4
20260503182328 59 0 1.0 13.0 0.00 0.00 0.00 34 1010.4
20260503182257 59 0 1.0 13.0 0.00 0.00 0.00 34 1010.5
20260503182156 59 0 1.0 13.0 0.00 0.00 0.00 33 1010.5
20260503182125 59 0 2.0 13.0 0.00 0.00 0.00 33 1010.6
20260503182056 59 0 1.0 13.0 0.00 0.00 0.00 33 1010.5
20260503182023 59 0 1.0 13.0 0.00 0.00 0.00 33 1010.7
20260503182020 59 360 0.0 13.0 0.00 0.00 0.00 33 1010.5
20260503182018 59 0 2.0 13.0 0.00 0.00 0.00 33 1010.6
20260503182009 59 0 2.0 13.0 0.00 0.00 0.00 33 1010.7
20260503181654 59 0 1.0 13.0 0.00 0.00 0.00 33 1010.6
20260503181554 59 0 2.0 13.0 0.00 0.00 0.00 34 1010.6
20260503181520 59 360 0.0 13.0 0.00 0.00 0.00 34 1010.4
20260503181452 59 0 1.0 13.0 0.00 0.00 0.00 35 1010.5
20260503181325 59 0 2.0 13.0 0.00 0.00 0.00 35 1010.5
20260503181251 59 0 2.0 13.0 0.00 0.00 0.00 34 1010.5
20260503181151 59 0 2.0 13.0 0.00 0.00 0.00 34 1010.4
20260503181050 59 0 2.0 13.0 0.00 0.00 0.00 34 1010.4
20260503181032 58 0 2.0 11.0 0.00 0.00 0.00 36 1010.4
20260503181026 58 0 2.0 13.0 0.00 0.00 0.00 35 1010.5
20260503181021 59 360 0.0 13.0 0.00 0.00 0.00 34 1010.4
20260503180909 58 0 2.0 11.0 0.00 0.00 0.00 36 1010.4
20260503180758 58 0 2.0 11.0 0.00 0.00 0.00 35 1010.4
20260503180630 58 0 1.0 10.0 0.00 0.00 0.00 33 1010.4
20260503180624 58 0 1.0 11.0 0.00 0.00 0.00 35 1010.4
20260503180520 58 360 2.0 11.0 0.00 0.00 0.00 35 1010.2
20260503180511 58 0 2.0 11.0 0.00 0.00 0.00 32 1010.3
20260503180502 58 0 1.0 10.0 0.00 0.00 0.00 33 1010.4
20260503180147 58 0 1.0 10.0 0.00 0.00 0.00 32 1010.4
20260503180046 58 0 1.0 10.0 0.00 0.00 0.00 33 1010.4
20260503180020 58 360 0.0 10.0 0.00 0.00 0.00 34 1010.4
20260503175945 58 0 1.0 10.0 0.00 0.00 0.00 34 1010.5
20260503175825 58 0 1.0 10.0 0.00 0.00 0.00 32 1010.4
20260503175741 58 0 1.0 10.0 0.00 0.00 0.00 33 1010.4
20260503175641 58 0 1.0 10.0 0.00 0.00 0.00 33 1010.4
20260503175602 58 0 1.0 13.0 0.00 0.00 0.00 34 1010.5
20260503175521 58 360 4.0 13.0 0.00 0.00 0.00 35 1010.4
20260503175448 58 0 1.0 13.0 0.00 0.00 0.00 35 1010.5
20260503175323 58 0 1.0 13.0 0.00 0.00 0.00 36 1010.5
20260503175238 58 0 1.0 13.0 0.00 0.00 0.00 38 1010.5
20260503175138 58 0 1.0 13.0 0.00 0.00 0.00 35 1010.6
20260503175038 58 0 1.0 13.0 0.00 0.00 0.00 35 1010.6
20260503175021 58 360 0.0 13.0 0.00 0.00 0.00 34 1010.6
20260503174937 58 0 1.0 13.0 0.00 0.00 0.00 34 1010.7
20260503174823 58 0 1.0 13.0 0.00 0.00 0.00 33 1010.6
20260503174736 58 0 1.0 13.0 0.00 0.00 0.00 34 1010.5
20260503174636 58 0 1.0 13.0 0.00 0.00 0.00 34 1010.5
20260503174550 58 360 0.0 19.0 0.00 0.00 0.00 33 1010.4
20260503174535 58 0 1.0 19.0 0.00 0.00 0.00 33 1010.5
20260503174435 58 0 1.0 19.0 0.00 0.00 0.00 33 1010.5
20260503174322 58 0 2.0 19.0 0.00 0.00 0.00 32 1010.7
20260503174243 58 0 2.0 19.0 0.00 0.00 0.00 32 1010.6
20260503174239 58 0 2.0 19.0 0.00 0.00 0.00 32 1010.7
20260503174056 58 0 2.0 19.0 0.00 0.00 0.00 32 1010.7
20260503174052 58 0 2.0 19.0 0.00 0.00 0.00 32 1010.6
20260503174047 58 0 2.0 19.0 0.00 0.00 0.00 31 1010.6
20260503174020 58 360 0.0 19.0 0.00 0.00 0.00 31 1010.6
20260503173819 58 0 2.0 19.0 0.00 0.00 0.00 33 1010.6
20260503173741 58 0 2.0 19.0 0.00 0.00 0.00 34 1010.5
20260503173737 58 0 2.0 19.0 0.00 0.00 0.00 32 1010.7
20260503173540 58 0 2.0 16.0 0.00 0.00 0.00 35 1010.5
20260503173536 58 360 0.0 16.0 0.00 0.00 0.00 34 1010.4
20260503173321 58 0 2.0 16.0 0.00 0.00 0.00 34 1010.4
20260503173253 57 0 2.0 16.0 0.00 0.00 0.00 36 1010.5
20260503173247 58 0 2.0 16.0 0.00 0.00 0.00 34 1010.3
20260503173134 58 0 2.0 16.0 0.00 0.00 0.00 36 1010.4
20260503173020 57 360 1.0 16.0 0.00 0.00 0.00 36 1010.3
20260503172935 57 0 2.0 16.0 0.00 0.00 0.00 33 1010.4
20260503172926 57 0 3.0 16.0 0.00 0.00 0.00 34 1010.6
20260503172722 57 0 3.0 22.0 0.00 0.00 0.00 35 1010.6
20260503172635 57 0 3.0 22.0 0.00 0.00 0.00 34 1010.4
20260503172631 57 0 3.0 22.0 0.00 0.00 0.00 36 1010.5
20260503172520 57 360 1.0 22.0 0.00 0.00 0.00 34 1010.5
20260503172421 56 0 3.0 22.0 0.00 0.00 0.00 34 1010.6
20260503172322 56 0 3.0 22.0 0.00 0.00 0.00 35 1010.5
20260503172220 56 0 2.0 22.0 0.00 0.00 0.00 34 1010.6
20260503172119 56 0 2.0 22.0 0.00 0.00 0.00 34 1010.5
20260503172021 56 360 2.0 22.0 0.00 0.00 0.00 35 1010.3
20260503172019 56 0 2.0 22.0 0.00 0.00 0.00 35 1010.5
20260503171918 56 0 2.0 22.0 0.00 0.00 0.00 33 1010.4
20260503171818 56 0 2.0 22.0 0.00 0.00 0.00 35 1010.3
20260503171718 56 0 1.0 15.0 0.00 0.00 0.00 36 1010.5
20260503171617 57 0 1.0 15.0 0.00 0.00 0.00 35 1010.5
20260503171520 57 360 0.0 15.0 0.00 0.00 0.00 32 1010.4
20260503171516 57 0 1.0 15.0 0.00 0.00 0.00 32 1010.5
20260503171443 57 0 1.0 15.0 0.00 0.00 0.00 33 1010.5
20260503171324 57 0 1.0 12.0 0.00 0.00 0.00 35 1010.6
20260503171115 57 0 1.0 12.0 0.00 0.00 0.00 34 1010.7
20260503171035 57 360 1.0 12.0 0.00 0.00 0.00 33 1010.6
20260503171015 57 0 1.0 12.0 0.00 0.00 0.00 33 1010.7
20260503170913 57 0 0.0 9.0 0.00 0.00 0.00 36 1010.8
20260503170813 57 0 0.0 9.0 0.00 0.00 0.00 37 1010.8
20260503170713 57 0 0.0 10.0 0.00 0.00 0.00 35 1010.8
20260503170612 57 0 0.0 10.0 0.00 0.00 0.00 35 1010.8
20260503170521 57 360 0.0 10.0 0.00 0.00 0.00 37 1010.7
20260503170512 57 0 1.0 10.0 0.00 0.00 0.00 37 1010.8
20260503170409 57 0 1.0 10.0 0.00 0.00 0.00 39 1010.8
20260503170318 57 0 1.0 10.0 0.00 0.00 0.00 35 1010.8
20260503170310 57 0 1.0 10.0 0.00 0.00 0.00 35 1010.7
20260503170236 56 0 1.0 10.0 0.00 0.00 0.00 37 1010.7
20260503170232 56 0 1.0 10.0 0.00 0.00 0.00 38 1010.8
20260503170227 56 0 1.0 10.0 0.00 0.00 0.00 36 1010.7
20260503160206 53 0 0.0 3.0 0.00 0.00 0.00 42 1011.1
20260503160201 53 0 0.0 6.0 0.00 0.00 0.00 42 1011.1
20260503151012 53 0 1.0 11.0 0.00 0.00 0.00 44 1010.8
20260503150809 53 0 1.0 11.0 0.00 0.00 0.00 43 1006.5
20260503150803 53 0 1.0 11.0 0.00 0.00 0.00 43 1006.5
20260503150715 53 0 1.0 11.0 0.00 0.00 0.00 42 1006.4
20260503150711 53 0 1.0 11.0 0.00 0.00 0.00 41 1006.4
20260503150521 53 360 0.0 11.0 0.00 0.00 0.00 43 1006.1
20260503150501 53 0 1.0 11.0 0.00 0.00 0.00 43 1006.2
20260503150401 53 0 1.0 11.0 0.00 0.00 0.00 42 1006.2
20260503150308 53 0 1.0 10.0 0.00 0.00 0.00 42 1006.2
20260503150300 53 0 1.0 10.0 0.00 0.00 0.00 42 1006.2
20260503150213 53 0 1.0 10.0 0.00 0.00 0.00 41 1006.4
20260503150209 53 0 1.0 10.0 0.00 0.00 0.00 41 1006.2
20260503140229 51 0 1.0 15.0 0.00 0.00 0.00 48 1006.9
20260503140141 51 0 0.0 9.0 0.00 0.00 0.00 50 1006.9
20260503140137 51 0 1.0 15.0 0.00 0.00 0.00 48 1006.9
20260503131405 49 0 0.0 3.0 0.00 0.00 0.00 54 1007.8
20260503131349 49 0 0.0 2.0 0.00 0.00 0.00 54 1007.8
20260503131218 49 0 0.0 2.0 0.00 0.00 0.00 55 1007.9
20260503131213 49 0 0.0 2.0 0.00 0.00 0.00 53 1007.8
20260503131021 49 360 0.0 2.0 0.00 0.00 0.00 55 1008.0
20260503131016 49 0 0.0 2.0 0.00 0.00 0.00 55 1008.0
20260503131011 49 0 0.0 2.0 0.00 0.00 0.00 55 1008.0
20260503130801 49 0 0.0 2.0 0.00 0.00 0.00 55 1008.1
20260503130742 49 0 0.0 2.0 0.00 0.00 0.00 55 1008.1
20260503130723 49 0 0.0 2.0 0.00 0.00 0.00 54 1008.2
20260503130610 49 0 0.0 2.0 0.00 0.00 0.00 53 1008.2
20260503130521 49 360 0.0 2.0 0.00 0.00 0.00 54 1008.3
20260503130400 49 0 0.0 2.0 0.00 0.00 0.00 55 1008.2
20260503130241 49 0 0.0 2.0 0.00 0.00 0.00 54 1008.3
20260503130200 49 0 0.0 2.0 0.00 0.00 0.00 53 1008.3
20260503130135 49 0 0.0 2.0 0.00 0.00 0.00 53 1008.3
20260503130128 49 0 0.0 2.0 0.00 0.00 0.00 53 1008.4
20260503120124 45 0 0.0 0.0 0.00 0.00 0.00 62 1011.3
20260503110816 44 0 0.0 0.0 0.00 0.00 0.00 64 1010.9
20260503110804 44 0 0.0 0.0 0.00 0.00 0.00 64 1010.9
20260503110557 44 0 0.0 0.0 0.00 0.00 0.00 64 1010.9
20260503110536 44 360 0.0 0.0 0.00 0.00 0.00 64 1011.0
20260503110458 44 0 0.0 0.0 0.00 0.00 0.00 64 1010.9
20260503110442 44 0 0.0 0.0 0.00 0.00 0.00 64 1010.9
20260503110358 44 0 0.0 0.0 0.00 0.00 0.00 64 1010.8
20260503110332 44 0 0.0 0.0 0.00 0.00 0.00 64 1010.9
20260503110156 44 0 0.0 0.0 0.00 0.00 0.00 64 1010.9
20260503110114 44 0 0.0 0.0 0.00 0.00 0.00 64 1010.8
20260503110108 44 0 0.0 0.0 0.00 0.00 0.00 64 1010.8
20260503110106 44 360 0.0 0.0 0.00 0.00 0.00 64 1010.9
20260503100223 43 0 0.0 5.0 0.00 0.00 0.00 65 1010.1
20260503100212 43 0 0.0 5.0 0.00 0.00 0.00 66 1010.1
20260503100123 43 0 0.0 5.0 0.00 0.00 0.00 66 1010.1
20260503090503 39 0 0.0 0.0 0.00 0.00 0.00 79 1009.4
20260503090459 39 0 0.0 0.0 0.00 0.00 0.00 79 1009.4
20260503090309 39 0 0.0 0.0 0.00 0.00 0.00 79 1009.3
20260503090256 39 0 0.0 0.0 0.00 0.00 0.00 79 1009.3
20260503081521 39 232 0.0 2.0 0.00 0.00 0.00 80 1009.1
20260503081423 39 232 0.0 2.0 0.00 0.00 0.00 80 1008.9
20260503081322 39 232 0.0 2.0 0.00 0.00 0.00 80 1008.9
20260503081222 39 232 0.0 2.0 0.00 0.00 0.00 80 1008.9
20260503081153 39 232 0.0 2.0 0.00 0.00 0.00 80 1008.8
20260503081127 39 232 0.0 0.0 0.00 0.00 0.00 79 1008.8
20260503081122 39 232 0.0 2.0 0.00 0.00 0.00 80 1008.8
20260503081116 39 232 0.0 0.0 0.00 0.00 0.00 79 1008.8
20260503081107 39 232 0.0 0.0 0.00 0.00 0.00 79 1008.8
20260503081101 39 232 0.0 0.0 0.00 0.00 0.00 80 1008.8
20260503081020 39 232 0.0 0.0 0.00 0.00 0.00 80 1009.0
20260503080833 39 232 0.0 0.0 0.00 0.00 0.00 79 1008.8
20260503080521 39 232 0.0 0.0 0.00 0.00 0.00 79 1009.0
20260503080518 39 232 0.0 0.0 0.00 0.00 0.00 79 1008.8
20260503080432 39 232 0.0 0.0 0.00 0.00 0.00 79 1008.7
20260503080426 39 232 0.0 0.0 0.00 0.00 0.00 79 1008.8
20260503080217 39 232 0.0 0.0 0.00 0.00 0.00 79 1008.7
20260503080138 39 232 0.0 0.0 0.00 0.00 0.00 79 1008.7
20260503080106 39 232 0.0 0.0 0.00 0.00 0.00 79 1008.9
20260503072909 40 232 0.0 0.0 0.00 0.00 0.00 80 1008.5
20260503072643 40 232 0.0 0.0 0.00 0.00 0.00 80 1008.5
20260503072559 40 232 0.0 0.0 0.00 0.00 0.00 80 1008.5
20260503072521 40 232 0.0 0.0 0.00 0.00 0.00 80 1008.6
20260503072459 40 232 0.0 0.0 0.00 0.00 0.00 81 1008.4
20260503072358 40 232 0.0 0.0 0.00 0.00 0.00 81 1008.4
20260503072257 40 232 0.0 0.0 0.00 0.00 0.00 81 1008.4
20260503072143 40 232 0.0 0.0 0.00 0.00 0.00 81 1008.4
20260503072056 40 232 0.0 0.0 0.00 0.00 0.00 81 1008.5
20260503072021 40 232 0.0 0.0 0.00 0.00 0.00 81 1008.6
20260503071956 40 232 0.0 0.0 0.00 0.00 0.00 81 1008.4
20260503071855 40 232 0.0 0.0 0.00 0.00 0.00 81 1008.5
20260503071755 40 232 0.0 0.0 0.00 0.00 0.00 81 1008.5
20260503071642 40 232 0.0 0.0 0.00 0.00 0.00 81 1008.5
20260503071553 40 232 0.0 0.0 0.00 0.00 0.00 81 1008.5
20260503071551 40 232 0.0 1.0 0.00 0.00 0.00 81 1008.7
20260503071546 40 232 0.0 1.0 0.00 0.00 0.00 81 1008.5
20260503071542 40 232 0.0 1.0 0.00 0.00 0.00 81 1008.5
20260503071536 40 232 0.0 1.0 0.00 0.00 0.00 81 1008.5
20260503071313 40 232 0.0 1.0 0.00 0.00 0.00 81 1008.5
20260503071304 40 232 0.0 1.0 0.00 0.00 0.00 81 1008.5
20260503071024 40 232 0.0 1.0 0.00 0.00 0.00 81 1008.5
20260503071021 40 232 0.0 1.0 0.00 0.00 0.00 81 1008.7
20260503071019 40 232 0.0 1.0 0.00 0.00 0.00 81 1008.5
20260503070906 40 232 0.0 1.0 0.00 0.00 0.00 81 1008.5
20260503070747 40 232 0.0 1.0 0.00 0.00 0.00 81 1008.5
20260503070548 40 231 0.0 1.0 0.00 0.00 0.00 81 1008.5
20260503070521 40 231 0.0 1.0 0.00 0.00 0.00 81 1008.7
20260503070446 40 231 0.0 1.0 0.00 0.00 0.00 81 1008.5
20260503070346 40 231 0.0 1.0 0.00 0.00 0.00 81 1008.5
20260503070245 40 232 0.0 1.0 0.00 0.00 0.00 81 1008.5
20260503070204 40 227 0.0 0.0 0.00 0.00 0.00 81 1008.7
20260503070159 40 231 0.0 1.0 0.00 0.00 0.00 81 1008.6
20260503070152 40 227 0.0 0.0 0.00 0.00 0.00 81 1008.6
20260503060332 42 221 0.0 1.0 0.00 0.00 0.00 81 1008.9
20260503060327 42 221 0.0 1.0 0.00 0.00 0.00 82 1009.0
20260503060136 42 287 0.0 0.0 0.00 0.00 0.00 81 1008.9
20260503060126 42 221 0.0 1.0 0.00 0.00 0.00 81 1008.9
20260503055111 42 211 0.0 0.0 0.00 0.00 0.00 80 1008.9
20260503055021 42 211 0.0 0.0 0.00 0.00 0.00 80 1009.0
20260503055009 42 211 0.0 0.0 0.00 0.00 0.00 80 1008.9
20260503054909 42 211 0.0 0.0 0.00 0.00 0.00 80 1008.9
20260503054809 42 211 0.0 0.0 0.00 0.00 0.00 80 1008.9
20260503054707 42 211 0.0 0.0 0.00 0.00 0.00 79 1008.9
20260503054630 42 211 0.0 0.0 0.00 0.00 0.00 79 1008.9
20260503054521 42 211 0.0 0.0 0.00 0.00 0.00 79 1009.0
20260503054517 42 211 0.0 0.0 0.00 0.00 0.00 79 1008.9
20260503054308 42 211 0.0 0.0 0.00 0.00 0.00 79 1009.0
20260503054208 42 211 0.0 0.0 0.00 0.00 0.00 79 1009.0
20260503054108 42 211 0.0 0.0 0.00 0.00 0.00 79 1009.0
20260503054037 42 211 0.0 0.0 0.00 0.00 0.00 79 1009.1
20260503054007 42 211 0.0 0.0 0.00 0.00 0.00 79 1009.0
20260503053906 42 211 0.0 0.0 0.00 0.00 0.00 79 1009.0
20260503053806 42 211 0.0 0.0 0.00 0.00 0.00 78 1009.0
20260503053705 42 211 0.0 0.0 0.00 0.00 0.00 78 1009.1
20260503053626 42 211 0.0 0.0 0.00 0.00 0.00 78 1009.1
20260503053605 42 211 0.0 0.0 0.00 0.00 0.00 78 1009.0
20260503053521 42 211 0.0 0.0 0.00 0.00 0.00 78 1009.1
20260503053504 42 211 0.0 0.0 0.00 0.00 0.00 78 1009.0
20260503053424 42 211 0.0 0.0 0.00 0.00 0.00 77 1009.1
20260503053404 42 211 0.0 0.0 0.00 0.00 0.00 78 1009.1
20260503053331 42 211 0.0 0.0 0.00 0.00 0.00 77 1009.1
20260503053326 42 211 0.0 0.0 0.00 0.00 0.00 78 1009.0
20260503053317 42 211 0.0 0.0 0.00 0.00 0.00 77 1009.1
20260503053021 43 211 0.0 0.0 0.00 0.00 0.00 77 1009.2
20260503053002 43 211 0.0 0.0 0.00 0.00 0.00 77 1009.1
20260503052900 43 211 0.0 0.0 0.00 0.00 0.00 77 1009.1
20260503052800 43 211 0.0 0.0 0.00 0.00 0.00 77 1009.1
20260503052700 43 211 0.0 0.0 0.00 0.00 0.00 77 1009.1
20260503052624 43 211 0.0 0.0 0.00 0.00 0.00 77 1009.1
20260503052558 43 211 0.0 0.0 0.00 0.00 0.00 77 1009.2
20260503052521 43 211 0.0 0.0 0.00 0.00 0.00 77 1009.3
20260503052458 43 211 0.0 0.0 0.00 0.00 0.00 77 1009.2
20260503052357 43 211 0.0 0.0 0.00 0.00 0.00 77 1009.2
20260503052257 43 211 0.0 0.0 0.00 0.00 0.00 77 1009.2
20260503052157 43 211 0.0 0.0 0.00 0.00 0.00 77 1009.2
20260503052125 43 211 0.0 0.0 0.00 0.00 0.00 77 1009.2
20260503052056 43 211 0.0 0.0 0.00 0.00 0.00 77 1009.2
20260503052022 43 211 0.0 0.0 0.00 0.00 0.00 76 1009.2
20260503052017 43 211 0.0 0.0 0.00 0.00 0.00 76 1009.2
20260503052013 43 211 0.0 0.0 0.00 0.00 0.00 77 1009.2
20260503051655 43 211 0.0 0.0 0.00 0.00 0.00 75 1009.2
20260503051624 43 211 0.0 0.0 0.00 0.00 0.00 75 1009.2
20260503051607 43 211 0.0 0.0 0.00 0.00 0.00 75 1009.3
20260503051603 43 211 0.0 0.0 0.00 0.00 0.00 75 1009.2
20260503051520 43 211 0.0 0.0 0.00 0.00 0.00 75 1009.4
20260503051352 43 211 0.0 0.0 0.00 0.00 0.00 75 1009.3
20260503051252 43 211 0.0 0.0 0.00 0.00 0.00 75 1009.2
20260503051218 43 211 0.0 0.0 0.00 0.00 0.00 75 1009.3
20260503051210 43 211 0.0 0.0 0.00 0.00 0.00 74 1009.3
20260503051100 43 211 0.0 0.0 0.00 0.00 0.00 74 1009.3
20260503051021 43 211 0.0 0.0 0.00 0.00 0.00 74 1009.4
20260503050854 44 211 0.0 0.0 0.00 0.00 0.00 74 1009.3
20260503050850 44 211 0.0 0.0 0.00 0.00 0.00 74 1009.3
20260503050842 44 211 0.0 0.0 0.00 0.00 0.00 74 1009.3
20260503050838 44 211 0.0 0.0 0.00 0.00 0.00 73 1009.3
20260503050834 44 211 0.0 0.0 0.00 0.00 0.00 73 1009.3
20260503050829 44 211 0.0 0.0 0.00 0.00 0.00 74 1009.3
20260503050711 44 211 0.0 0.0 0.00 0.00 0.00 74 1009.3
20260503050521 44 211 0.0 0.0 0.00 0.00 0.00 74 1009.4
20260503050246 44 211 0.0 0.0 0.00 0.00 0.00 73 1009.3
20260503050118 44 211 0.0 0.0 0.00 0.00 0.00 73 1009.3
20260503050045 44 211 0.0 0.0 0.00 0.00 0.00 73 1009.3
20260503050021 44 211 0.0 0.0 0.00 0.00 0.00 73 1009.4
20260503045944 44 211 0.0 0.0 0.00 0.00 0.00 73 1009.3
20260503045849 44 211 0.0 0.0 0.00 0.00 0.00 71 1009.4
20260503045845 44 211 0.0 0.0 0.00 0.00 0.00 73 1009.4
20260503045836 44 211 0.0 0.0 0.00 0.00 0.00 72 1009.3
20260503045541 44 211 0.0 0.0 0.00 0.00 0.00 71 1009.4
20260503045521 44 211 0.0 0.0 0.00 0.00 0.00 71 1009.5
20260503045441 44 211 0.0 0.0 0.00 0.00 0.00 71 1009.4
20260503045352 44 211 0.0 0.0 0.00 0.00 0.00 70 1009.4
20260503045347 44 211 0.0 0.0 0.00 0.00 0.00 71 1009.4
20260503045155 45 211 0.0 0.0 0.00 0.00 0.00 68 1009.4
20260503045143 45 211 0.0 0.0 0.00 0.00 0.00 68 1009.4
20260503045022 45 211 0.0 0.0 0.00 0.00 0.00 68 1009.5
20260503044941 45 211 0.0 0.0 0.00 0.00 0.00 69 1009.4
20260503044849 45 211 0.0 0.0 0.00 0.00 0.00 68 1009.4
20260503044845 45 211 0.0 0.0 0.00 0.00 0.00 68 1009.4
20260503044653 45 211 0.0 0.0 0.00 0.00 0.00 67 1009.5
20260503044641 45 211 0.0 0.0 0.00 0.00 0.00 68 1009.5
20260503044551 45 211 0.0 0.0 0.00 0.00 0.00 67 1009.6
20260503044433 45 211 0.0 0.0 0.00 0.00 0.00 67 1009.5
20260503044333 45 211 0.0 0.0 0.00 0.00 0.00 66 1009.5
20260503044231 45 211 0.0 0.0 0.00 0.00 0.00 66 1009.5
20260503044113 45 211 0.0 0.0 0.00 0.00 0.00 65 1009.5
20260503044031 45 211 0.0 0.0 0.00 0.00 0.00 65 1009.5
20260503044021 45 211 0.0 0.0 0.00 0.00 0.00 65 1009.6
20260503043930 45 211 0.0 0.0 0.00 0.00 0.00 65 1009.5
20260503043839 45 211 0.0 0.0 0.00 0.00 0.00 65 1009.5
20260503043830 45 211 0.0 0.0 0.00 0.00 0.00 65 1009.5
20260503043732 45 211 0.0 0.0 0.00 0.00 0.00 65 1009.5
20260503043723 45 211 0.0 0.0 0.00 0.00 0.00 65 1009.5
20260503043529 45 211 0.0 0.0 0.00 0.00 0.00 65 1009.5
20260503043521 45 211 0.0 0.0 0.00 0.00 0.00 65 1009.6
20260503043428 45 211 0.0 0.0 0.00 0.00 0.00 65 1009.5
20260503043327 45 211 0.0 0.0 0.00 0.00 0.00 65 1009.5
20260503043227 45 211 0.0 0.0 0.00 0.00 0.00 65 1009.5
20260503043114 45 211 0.0 0.0 0.00 0.00 0.00 65 1009.5
20260503043026 45 211 0.0 0.0 0.00 0.00 0.00 64 1009.5
20260503043021 45 211 0.0 0.0 0.00 0.00 0.00 64 1009.7
20260503042924 45 211 0.0 0.0 0.00 0.00 0.00 64 1009.6
20260503042827 45 211 0.0 0.0 0.00 0.00 0.00 65 1009.6
20260503042818 45 211 0.0 0.0 0.00 0.00 0.00 64 1009.5
20260503042814 45 211 0.0 0.0 0.00 0.00 0.00 64 1009.5
20260503042809 45 211 0.0 0.0 0.00 0.00 0.00 64 1009.6
20260503042652 45 211 0.0 0.0 0.00 0.00 0.00 64 1009.5
20260503042541 45 211 0.0 0.0 0.00 0.00 0.00 64 1009.5
20260503042521 45 211 0.0 0.0 0.00 0.00 0.00 64 1009.6
20260503042221 45 211 0.0 0.0 0.00 0.00 0.00 64 1009.6
20260503042113 45 211 0.0 0.0 0.00 0.00 0.00 65 1009.6
20260503042021 45 211 0.0 0.0 0.00 0.00 0.00 65 1009.7
20260503041920 45 211 0.0 0.0 0.00 0.00 0.00 65 1009.6
20260503041842 45 211 0.0 0.0 0.00 0.00 0.00 63 1009.6
20260503041820 45 211 0.0 0.0 0.00 0.00 0.00 65 1009.6
20260503041729 45 211 0.0 0.0 0.00 0.00 0.00 65 1009.6
20260503041720 45 211 0.0 0.0 0.00 0.00 0.00 63 1009.6
20260503041521 45 211 0.0 0.0 0.00 0.00 0.00 63 1009.7
20260503041518 45 211 0.0 0.0 0.00 0.00 0.00 63 1009.6
20260503041418 45 211 0.0 0.0 0.00 0.00 0.00 63 1009.6
20260503041318 45 211 0.0 0.0 0.00 0.00 0.00 63 1009.6
20260503041217 45 211 0.0 0.0 0.00 0.00 0.00 63 1009.6
20260503041136 45 211 0.0 0.0 0.00 0.00 0.00 64 1009.6
20260503041124 45 211 0.0 0.0 0.00 0.00 0.00 63 1009.6
20260503041021 45 211 0.0 0.0 0.00 0.00 0.00 64 1009.7
20260503040931 45 211 0.0 0.0 0.00 0.00 0.00 64 1009.6
20260503040927 45 211 0.0 0.0 0.00 0.00 0.00 64 1009.6
20260503040717 46 211 0.0 0.0 0.00 0.00 0.00 64 1009.6
20260503040611 46 211 0.0 0.0 0.00 0.00 0.00 65 1009.6
20260503040521 46 211 0.0 0.0 0.00 0.00 0.00 65 1009.7
20260503040515 46 211 0.0 0.0 0.00 0.00 0.00 65 1009.6
20260503040415 46 211 0.0 0.0 0.00 0.00 0.00 65 1009.6
20260503040314 46 211 0.0 0.0 0.00 0.00 0.00 64 1009.6
20260503040214 46 211 0.0 0.0 0.00 0.00 0.00 63 1009.7
20260503040110 46 211 0.0 0.0 0.00 0.00 0.00 63 1009.7
20260503040021 46 211 0.0 0.0 0.00 0.00 0.00 63 1009.8
20260503040014 46 211 0.0 0.0 0.00 0.00 0.00 63 1009.7
20260503035911 46 211 0.0 0.0 0.00 0.00 0.00 63 1009.7
20260503035824 46 211 0.0 0.0 0.00 0.00 0.00 64 1009.7
20260503035819 46 211 0.0 0.0 0.00 0.00 0.00 64 1009.8
20260503035610 46 211 0.0 0.0 0.00 0.00 0.00 65 1009.7
20260503035521 46 211 0.0 0.0 0.00 0.00 0.00 64 1009.9
20260503035510 46 211 0.0 0.0 0.00 0.00 0.00 64 1009.8
20260503035422 46 211 0.0 0.0 0.00 0.00 0.00 65 1009.7
20260503035418 46 211 0.0 0.0 0.00 0.00 0.00 64 1009.7
20260503035207 46 211 0.0 0.0 0.00 0.00 0.00 65 1009.7
20260503035108 46 211 0.0 0.0 0.00 0.00 0.00 64 1009.7
20260503035021 46 211 0.0 0.0 0.00 0.00 0.00 64 1009.8
20260503035019 46 211 0.0 0.0 0.00 0.00 0.00 64 1009.7
20260503035015 46 211 0.0 0.0 0.00 0.00 0.00 64 1009.7
20260503034806 46 211 0.0 0.0 0.00 0.00 0.00 64 1009.7
20260503034705 46 211 0.0 0.0 0.00 0.00 0.00 65 1009.7
20260503034606 46 211 0.0 0.0 0.00 0.00 0.00 65 1009.7
20260503034521 46 211 0.0 0.0 0.00 0.00 0.00 64 1009.8
20260503034517 46 211 0.0 0.0 0.00 0.00 0.00 63 1009.7
20260503034513 46 211 0.0 0.0 0.00 0.00 0.00 64 1009.7
20260503034303 46 211 0.0 0.0 0.00 0.00 0.00 63 1009.8
20260503034202 46 211 0.0 0.0 0.00 0.00 0.00 63 1009.7
20260503034120 46 211 0.0 0.0 0.00 0.00 0.00 62 1009.7
20260503034116 46 211 0.0 0.0 0.00 0.00 0.00 64 1009.7
20260503034110 46 211 0.0 0.0 0.00 0.00 0.00 64 1009.7
20260503034021 46 211 0.0 0.0 0.00 0.00 0.00 62 1009.8
20260503033901 46 211 0.0 0.0 0.00 0.00 0.00 61 1009.7
20260503033801 46 211 0.0 0.0 0.00 0.00 0.00 61 1009.6
20260503033659 46 211 0.0 0.0 0.00 0.00 0.00 61 1009.6
20260503033617 46 211 0.0 0.0 0.00 0.00 0.00 62 1009.6
20260503033613 46 211 0.0 0.0 0.00 0.00 0.00 61 1009.6
20260503033607 46 211 0.0 0.0 0.00 0.00 0.00 61 1009.6
20260503033521 46 211 0.0 0.0 0.00 0.00 0.00 62 1009.7
20260503033358 46 211 0.0 0.0 0.00 0.00 0.00 61 1009.6
20260503033310 46 211 0.0 0.0 0.00 0.00 0.00 60 1009.6
20260503033306 46 211 0.0 0.0 0.00 0.00 0.00 61 1009.6
20260503033108 46 211 0.0 0.0 0.00 0.00 0.00 61 1009.6
20260503033057 46 211 0.0 0.0 0.00 0.00 0.00 61 1009.6
20260503033036 47 211 0.0 0.0 0.00 0.00 0.00 61 1009.7
20260503032956 47 211 0.0 0.0 0.00 0.00 0.00 61 1009.7
20260503032908 47 211 0.0 0.0 0.00 0.00 0.00 60 1009.7
20260503032904 47 211 0.0 0.0 0.00 0.00 0.00 61 1009.7
20260503032654 47 211 0.0 0.0 0.00 0.00 0.00 60 1009.7
20260503032626 47 236 0.0 0.0 0.00 0.00 0.00 60 1009.7
20260503032622 47 236 0.0 0.0 0.00 0.00 0.00 60 1009.7
20260503032616 47 211 0.0 0.0 0.00 0.00 0.00 60 1009.7
20260503032611 47 211 0.0 0.0 0.00 0.00 0.00 60 1009.7
20260503032521 47 234 0.0 0.0 0.00 0.00 0.00 60 1009.7
20260503032252 47 236 0.0 0.0 0.00 0.00 0.00 60 1009.7
20260503032152 47 236 0.0 0.0 0.00 0.00 0.00 59 1009.6
20260503032105 47 244 0.0 0.0 0.00 0.00 0.00 59 1009.7
20260503032051 47 244 0.0 0.0 0.00 0.00 0.00 59 1009.7
20260503032021 47 244 0.0 0.0 0.00 0.00 0.00 60 1009.7
20260503032004 47 244 0.0 0.0 0.00 0.00 0.00 60 1009.7
20260503032000 47 244 0.0 0.0 0.00 0.00 0.00 60 1009.7
20260503031803 47 244 0.0 0.0 0.00 0.00 0.00 61 1009.7
20260503031759 47 244 0.0 0.0 0.00 0.00 0.00 60 1009.7
20260503031603 47 244 0.0 0.0 0.00 0.00 0.00 60 1009.7
20260503031549 47 244 0.0 0.0 0.00 0.00 0.00 60 1009.7
20260503031521 47 244 0.0 0.0 0.00 0.00 0.00 59 1009.7
20260503031449 47 244 0.0 0.0 0.00 0.00 0.00 59 1009.7
20260503031348 47 244 0.0 0.0 0.00 0.00 0.00 59 1009.7
20260503031248 47 244 0.0 0.0 0.00 0.00 0.00 59 1009.7
20260503031232 47 244 0.0 0.0 0.00 0.00 0.00 58 1009.6
20260503031228 47 244 0.0 0.0 0.00 0.00 0.00 58 1009.7
20260503031223 47 244 0.0 0.0 0.00 0.00 0.00 59 1009.7
20260503031209 47 244 0.0 0.0 0.00 0.00 0.00 58 1009.6
20260503031021 47 244 0.0 0.0 0.00 0.00 0.00 58 1009.7
20260503030745 47 244 0.0 0.0 0.00 0.00 0.00 59 1009.7
20260503030643 47 244 0.0 0.0 0.00 0.00 0.00 58 1009.7
20260503030603 47 244 0.0 0.0 0.00 0.00 0.00 58 1009.7
20260503030543 47 244 0.0 0.0 0.00 0.00 0.00 58 1009.7
20260503030536 47 244 0.0 0.0 0.00 0.00 0.00 57 1009.6
20260503030442 47 244 0.0 0.0 0.00 0.00 0.00 57 1009.6
20260503030342 47 244 0.0 0.0 0.00 0.00 0.00 57 1009.6
20260503030251 47 244 0.0 0.0 0.00 0.00 0.00 57 1009.7
20260503030246 47 244 0.0 0.0 0.00 0.00 0.00 57 1009.6
20260503030237 47 244 0.0 0.0 0.00 0.00 0.00 57 1009.6
20260503030228 47 244 0.0 0.0 0.00 0.00 0.00 56 1009.7
20260503030021 47 244 0.0 0.0 0.00 0.00 0.00 57 1009.6
20260503030011 47 244 0.0 0.0 0.00 0.00 0.00 57 1009.7
20260503030005 47 244 0.0 0.0 0.00 0.00 0.00 57 1009.6
20260503025601 48 244 0.0 0.0 0.00 0.00 0.00 57 1009.6
20260503025537 47 244 0.0 0.0 0.00 0.00 0.00 57 1009.6
20260503025521 48 244 0.0 0.0 0.00 0.00 0.00 57 1009.6
20260503025449 48 244 0.0 0.0 0.00 0.00 0.00 57 1009.6
20260503025445 48 244 0.0 0.0 0.00 0.00 0.00 57 1009.6
20260503025236 48 244 0.0 0.0 0.00 0.00 0.00 58 1009.6
20260503025135 48 244 0.0 0.0 0.00 0.00 0.00 57 1009.6
20260503025035 48 244 0.0 0.0 0.00 0.00 0.00 58 1009.6
20260503025021 48 244 0.0 0.0 0.00 0.00 0.00 58 1009.6
20260503024933 48 244 0.0 0.0 0.00 0.00 0.00 57 1009.6
20260503024846 48 244 0.0 0.0 0.00 0.00 0.00 57 1009.6
20260503024842 48 244 0.0 0.0 0.00 0.00 0.00 57 1009.6
20260503024632 48 244 0.0 0.0 0.00 0.00 0.00 56 1009.7
20260503024532 48 244 0.0 0.0 0.00 0.00 0.00 56 1009.7
20260503024521 48 244 0.0 0.0 0.00 0.00 0.00 56 1009.6
20260503024431 48 244 0.0 0.0 0.00 0.00 0.00 56 1009.6
20260503024330 48 244 0.0 0.0 0.00 0.00 0.00 56 1009.7
20260503024230 48 244 0.0 0.0 0.00 0.00 0.00 56 1009.6
20260503024143 48 244 0.0 0.0 0.00 0.00 0.00 56 1009.6
20260503024135 48 244 0.0 0.0 0.00 0.00 0.00 56 1009.6
20260503024021 48 244 0.0 0.0 0.00 0.00 0.00 56 1009.6
20260503023941 48 236 0.0 0.0 0.00 0.00 0.00 56 1009.7
20260503023937 48 236 0.0 0.0 0.00 0.00 0.00 56 1009.6
20260503023728 48 236 0.0 0.0 0.00 0.00 0.00 56 1009.6
20260503023627 48 236 0.0 0.0 0.00 0.00 0.00 56 1009.6
20260503023600 48 236 0.0 0.0 0.00 0.00 0.00 56 1009.7
20260503023527 48 236 0.0 0.0 0.00 0.00 0.00 55 1009.7
20260503023521 48 236 0.0 0.0 0.00 0.00 0.00 55 1009.7
20260503023426 48 236 0.0 0.0 0.00 0.00 0.00 55 1009.7
20260503023325 49 236 0.0 0.0 0.00 0.00 0.00 55 1009.7
20260503023225 49 236 0.0 0.0 0.00 0.00 0.00 55 1009.7
20260503023124 49 236 0.0 0.0 0.00 0.00 0.00 55 1009.7
20260503023059 49 236 0.0 0.0 0.00 0.00 0.00 55 1009.7
20260503023024 49 236 0.0 0.0 0.00 0.00 0.00 55 1009.7
20260503023021 49 236 0.0 0.0 0.00 0.00 0.00 55 1009.7
20260503022922 49 236 0.0 0.0 0.00 0.00 0.00 54 1009.7
20260503022822 49 236 0.0 0.0 0.00 0.00 0.00 54 1009.7
20260503022735 49 236 0.0 0.0 0.00 0.00 0.00 54 1009.7
20260503022730 49 236 0.0 0.0 0.00 0.00 0.00 54 1009.7
20260503022558 49 236 0.0 0.0 0.00 0.00 0.00 54 1009.7
20260503022534 49 234 0.0 0.0 0.00 0.00 0.00 54 1009.7
20260503022529 49 234 0.0 0.0 0.00 0.00 0.00 54 1009.7
20260503022521 49 234 0.0 0.0 0.00 0.00 0.00 55 1009.7
20260503022320 49 234 0.0 0.0 0.00 0.00 0.00 54 1009.7
20260503022219 49 234 0.0 0.0 0.00 0.00 0.00 54 1009.7
20260503022118 49 234 0.0 0.0 0.00 0.00 0.00 53 1009.7
20260503022057 49 234 0.0 0.0 0.00 0.00 0.00 53 1009.6
20260503022021 49 243 0.0 0.0 0.00 0.00 0.00 54 1009.6
20260503022017 49 243 0.0 0.0 0.00 0.00 0.00 54 1009.6
20260503021917 49 243 0.0 0.0 0.00 0.00 0.00 53 1009.6
20260503021830 49 242 0.0 0.0 0.00 0.00 0.00 53 1009.6
20260503021825 49 243 0.0 0.0 0.00 0.00 0.00 53 1009.6
20260503021616 49 258 0.0 0.0 0.00 0.00 0.00 53 1009.7
20260503021556 49 258 0.0 0.0 0.00 0.00 0.00 53 1009.7
20260503021522 49 258 0.0 0.0 0.00 0.00 0.00 53 1009.7
20260503021515 49 258 0.0 0.0 0.00 0.00 0.00 53 1009.7
20260503021415 49 257 0.0 0.0 0.00 0.00 0.00 53 1009.7
20260503021323 49 244 0.0 0.0 0.00 0.00 0.00 53 1009.7
20260503021315 49 257 0.0 0.0 0.00 0.00 0.00 52 1009.8
20260503021213 49 268 0.0 0.0 0.00 0.00 0.00 53 1009.8
20260503021204 49 244 0.0 0.0 0.00 0.00 0.00 53 1009.7
20260503021022 50 244 0.0 0.0 0.00 0.00 0.00 53 1009.7
20260503021012 49 244 0.0 0.0 0.00 0.00 0.00 53 1009.7
20260503020930 50 244 0.0 0.0 0.00 0.00 0.00 53 1009.8
20260503020812 50 244 0.0 0.0 0.00 0.00 0.00 52 1009.8
20260503020712 50 244 0.0 0.0 0.00 0.00 0.00 52 1009.8
20260503020703 50 244 0.0 0.0 0.00 0.00 0.00 52 1009.7
20260503020521 50 246 0.0 0.0 0.00 0.00 0.00 52 1009.8
20260503020512 50 246 0.0 0.0 0.00 0.00 0.00 52 1009.8
20260503020412 50 232 0.0 0.0 0.00 0.00 0.00 52 1009.8
20260503020324 50 270 0.0 0.0 0.00 0.00 0.00 52 1009.8
20260503020320 50 232 0.0 0.0 0.00 0.00 0.00 52 1009.8
20260503020110 50 272 0.0 0.0 0.00 0.00 0.00 52 1009.8
20260503020055 50 272 0.0 0.0 0.00 0.00 0.00 52 1009.8
20260503020021 50 272 0.0 0.0 0.00 0.00 0.00 52 1009.8
20260503020016 50 273 0.0 0.0 0.00 0.00 0.00 52 1009.8
20260503015807 50 240 0.0 0.0 0.00 0.00 0.00 52 1009.7
20260503015719 50 238 0.0 0.0 0.00 0.00 0.00 51 1009.7
20260503015715 50 238 0.0 0.0 0.00 0.00 0.00 52 1009.7
20260503015554 50 238 0.0 0.0 0.00 0.00 0.00 51 1009.7
20260503015521 50 261 0.0 0.0 0.00 0.00 0.00 51 1009.7
20260503015505 50 261 0.0 0.0 0.00 0.00 0.00 51 1009.7
20260503015405 50 261 0.0 0.0 0.00 0.00 0.00 51 1009.7
20260503015306 50 261 0.0 0.0 0.00 0.00 0.00 51 1009.6
20260503015205 51 263 0.0 0.0 0.00 0.00 0.00 50 1009.7
20260503015105 51 263 0.0 0.0 0.00 0.00 0.00 51 1009.6
20260503015054 51 265 0.0 0.0 0.00 0.00 0.00 51 1009.6
20260503015021 51 258 0.0 0.0 0.00 0.00 0.00 50 1009.6
20260503015005 51 263 0.0 0.0 0.00 0.00 0.00 50 1009.6
20260503014905 51 263 0.0 0.0 0.00 0.00 0.00 50 1009.6
20260503014804 51 263 0.0 0.0 0.00 0.00 0.00 50 1009.6
20260503014704 51 263 0.0 0.0 0.00 0.00 0.00 50 1009.6
20260503014603 51 0 0.0 0.0 0.00 0.00 0.00 50 1009.6
20260503014553 51 0 0.0 0.0 0.00 0.00 0.00 50 1009.6
20260503014521 51 360 0.0 0.0 0.00 0.00 0.00 50 1009.7
20260503014503 51 0 0.0 0.0 0.00 0.00 0.00 50 1009.7
20260503014402 51 0 0.0 0.0 0.00 0.00 0.00 50 1009.7
20260503014301 51 0 0.0 0.0 0.00 0.00 0.00 50 1009.7
20260503014201 51 0 0.0 0.0 0.00 0.00 0.00 50 1009.6
20260503014053 51 0 0.0 0.0 0.00 0.00 0.00 50 1009.6
20260503014021 51 360 0.0 0.0 0.00 0.00 0.00 50 1009.6
20260503014000 51 0 0.0 0.0 0.00 0.00 0.00 50 1009.6
20260503013859 51 0 0.0 0.0 0.00 0.00 0.00 50 1009.6
20260503013759 51 0 0.0 0.0 0.00 0.00 0.00 50 1009.6
20260503013658 51 0 0.0 0.0 0.00 0.00 0.00 49 1009.6
20260503013554 51 0 0.0 0.0 0.00 0.00 0.00 48 1009.5
20260503013521 52 360 0.0 0.0 0.00 0.00 0.00 48 1009.5
20260503013455 51 0 0.0 0.0 0.00 0.00 0.00 48 1009.5
20260503013355 52 0 0.0 0.0 0.00 0.00 0.00 48 1009.5
20260503013254 52 0 0.0 0.0 0.00 0.00 0.00 49 1009.5
20260503013155 52 0 0.0 0.0 0.00 0.00 0.00 48 1009.5
20260503013056 52 0 0.0 0.0 0.00 0.00 0.00 48 1009.5
20260503013022 52 360 0.0 0.0 0.00 0.00 0.00 48 1009.5
20260503012954 52 0 0.0 0.0 0.00 0.00 0.00 48 1009.5
20260503012853 52 0 0.0 0.0 0.00 0.00 0.00 48 1009.5
20260503012752 52 0 0.0 0.0 0.00 0.00 0.00 48 1009.4
20260503012652 52 0 0.0 0.0 0.00 0.00 0.00 48 1009.4
20260503012550 52 0 0.0 0.0 0.00 0.00 0.00 48 1009.4
20260503012521 52 360 0.0 0.0 0.00 0.00 0.00 48 1009.5
20260503012448 52 0 0.0 0.0 0.00 0.00 0.00 48 1009.5
20260503012349 52 0 0.0 0.0 0.00 0.00 0.00 48 1009.4
20260503012247 52 0 0.0 0.0 0.00 0.00 0.00 48 1009.4
20260503012147 52 0 0.0 0.0 0.00 0.00 0.00 48 1009.4
20260503012047 52 0 0.0 0.0 0.00 0.00 0.00 48 1009.5
20260503012021 52 360 0.0 0.0 0.00 0.00 0.00 47 1009.5
20260503011945 52 0 0.0 0.0 0.00 0.00 0.00 47 1009.5
20260503011845 52 0 0.0 0.0 0.00 0.00 0.00 48 1009.5
20260503011743 52 0 0.0 0.0 0.00 0.00 0.00 48 1009.5
20260503011643 52 0 0.0 0.0 0.00 0.00 0.00 47 1009.4
20260503011603 52 0 0.0 0.0 0.00 0.00 0.00 48 1009.4
20260503011552 52 0 0.0 0.0 0.00 0.00 0.00 48 1009.4
20260503011521 52 360 0.0 0.0 0.00 0.00 0.00 48 1009.4
20260503011343 52 0 0.0 0.0 0.00 0.00 0.00 48 1009.4
20260503011243 52 0 0.0 0.0 0.00 0.00 0.00 47 1009.4
20260503011141 52 0 0.0 0.0 0.00 0.00 0.00 47 1009.4
20260503011041 52 0 0.0 0.0 0.00 0.00 0.00 47 1009.4
20260503011036 52 360 0.0 0.0 0.00 0.00 0.00 47 1009.4
20260503010954 52 0 0.0 0.0 0.00 0.00 0.00 47 1009.3
20260503010949 52 0 0.0 0.0 0.00 0.00 0.00 48 1009.4
20260503010739 52 0 0.0 0.0 0.00 0.00 0.00 48 1009.4
20260503010654 52 0 0.0 0.0 0.00 0.00 0.00 47 1009.3
20260503010645 52 0 0.0 0.0 0.00 0.00 0.00 47 1009.3
20260503010521 52 360 0.0 0.0 0.00 0.00 0.00 47 1009.3
20260503010439 52 0 0.0 0.0 0.00 0.00 0.00 47 1009.3
20260503010338 52 0 0.0 0.0 0.00 0.00 0.00 48 1009.4
20260503010237 52 0 0.0 0.0 0.00 0.00 0.00 48 1009.4
20260503010136 52 0 0.0 0.0 0.00 0.00 0.00 48 1009.4
20260503010056 52 0 0.0 0.0 0.00 0.00 0.00 47 1009.3
20260503010045 52 0 0.0 0.0 0.00 0.00 0.00 47 1009.4
20260503010021 52 360 0.0 0.0 0.00 0.00 0.00 47 1009.3
20260503005835 52 0 0.0 0.0 0.00 0.00 0.00 47 1009.3
20260503005734 52 0 0.0 0.0 0.00 0.00 0.00 48 1009.4
20260503005653 52 0 0.0 0.0 0.00 0.00 0.00 48 1009.4
20260503005648 52 0 0.0 0.0 0.00 0.00 0.00 48 1009.4
20260503005640 52 0 0.0 0.0 0.00 0.00 0.00 47 1009.3
20260503005521 52 360 0.0 0.0 0.00 0.00 0.00 48 1009.3
20260503005433 53 0 0.0 0.0 0.00 0.00 0.00 47 1009.4
20260503005351 53 0 0.0 0.0 0.00 0.00 0.00 47 1009.3
20260503005347 53 0 0.0 0.0 0.00 0.00 0.00 47 1009.3
20260503005342 53 0 0.0 0.0 0.00 0.00 0.00 47 1009.3
20260503005153 53 0 0.0 0.0 0.00 0.00 0.00 47 1009.4
20260503005031 53 0 0.0 0.0 0.00 0.00 0.00 47 1009.3
20260503005021 53 360 0.0 0.0 0.00 0.00 0.00 47 1009.2
20260503004946 53 0 0.0 0.0 0.00 0.00 0.00 47 1009.3
20260503004940 53 0 0.0 0.0 0.00 0.00 0.00 48 1009.3
20260503004731 53 0 0.0 0.0 0.00 0.00 0.00 47 1009.3
20260503004631 53 0 0.0 0.0 0.00 0.00 0.00 47 1009.3
20260503004606 53 360 0.0 0.0 0.00 0.00 0.00 47 1009.2
20260503004529 53 0 0.0 0.0 0.00 0.00 0.00 47 1009.2
20260503004429 53 0 0.0 0.0 0.00 0.00 0.00 47 1009.3
20260503004327 53 0 0.0 0.0 0.00 0.00 0.00 46 1009.2
20260503004227 53 0 0.0 0.0 0.00 0.00 0.00 46 1009.3
20260503004125 53 0 0.0 0.0 0.00 0.00 0.00 47 1009.2
20260503004025 53 0 0.0 0.0 0.00 0.00 0.00 47 1009.2
20260503004022 53 360 0.0 0.0 0.00 0.00 0.00 47 1009.1
20260503003925 53 0 0.0 0.0 0.00 0.00 0.00 47 1009.2
20260503003824 53 0 0.0 0.0 0.00 0.00 0.00 46 1009.2
20260503003724 53 0 0.0 0.0 0.00 0.00 0.00 46 1009.1
20260503003623 53 0 0.0 0.0 0.00 0.00 0.00 45 1009.1
20260503003522 53 0 0.0 0.0 0.00 0.00 0.00 46 1009.1
20260503003423 53 0 0.0 0.0 0.00 0.00 0.00 45 1009.1
20260503003416 53 0 0.0 0.0 0.00 0.00 0.00 45 1009.0
20260503003412 53 0 0.0 0.0 0.00 0.00 0.00 45 1009.0
20260503003406 53 0 0.0 0.0 0.00 0.00 0.00 45 1009.1
20260503003252 53 0 0.0 0.0 0.00 0.00 0.00 46 1009.0
20260503003135 53 0 0.0 0.0 0.00 0.00 0.00 45 1009.0
20260503003036 53 360 0.0 0.0 0.00 0.00 0.00 45 1008.9
20260503002819 53 0 0.0 1.0 0.00 0.00 0.00 45 1009.0
20260503002732 53 0 0.0 1.0 0.00 0.00 0.00 46 1009.0
20260503002727 53 0 0.0 1.0 0.00 0.00 0.00 46 1009.1
20260503002536 53 360 0.0 1.0 0.00 0.00 0.00 45 1008.9
20260503002532 53 0 0.0 1.0 0.00 0.00 0.00 45 1009.0
20260503002526 53 0 0.0 1.0 0.00 0.00 0.00 45 1009.1
20260503002317 53 0 0.0 1.0 0.00 0.00 0.00 44 1009.0
20260503002217 53 0 0.0 1.0 0.00 0.00 0.00 46 1009.0
20260503002116 53 0 0.0 1.0 0.00 0.00 0.00 45 1009.0
20260503002039 53 0 0.0 1.0 0.00 0.00 0.00 45 1008.9
20260503002021 54 360 0.0 1.0 0.00 0.00 0.00 45 1008.9
20260503002016 53 0 0.0 1.0 0.00 0.00 0.00 45 1009.0
20260503001916 53 0 0.0 1.0 0.00 0.00 0.00 45 1008.9
20260503001843 54 0 0.0 0.0 0.00 0.00 0.00 44 1008.9
20260503001814 54 0 0.0 0.0 0.00 0.00 0.00 44 1008.9
20260503001743 54 0 0.0 0.0 0.00 0.00 0.00 44 1008.9
20260503001737 54 0 0.0 0.0 0.00 0.00 0.00 44 1009.0
20260503001728 54 0 0.0 0.0 0.00 0.00 0.00 44 1008.9
20260503001521 54 360 0.0 0.0 0.00 0.00 0.00 44 1008.8
20260503001413 54 0 0.0 0.0 0.00 0.00 0.00 44 1008.8
20260503001332 54 0 0.0 0.0 0.00 0.00 0.00 44 1008.9
20260503001219 54 0 0.0 0.0 0.00 0.00 0.00 44 1008.9
20260503001021 54 360 0.0 0.0 0.00 0.00 0.00 43 1008.8
20260503001011 54 0 0.0 0.0 0.00 0.00 0.00 43 1008.9
20260503000910 54 0 0.0 0.0 0.00 0.00 0.00 42 1008.9
20260503000810 54 0 0.0 0.0 0.00 0.00 0.00 42 1008.9
20260503000709 54 0 0.0 0.0 0.00 0.00 0.00 43 1009.0
20260503000623 54 0 0.0 0.0 0.00 0.00 0.00 43 1008.9
20260503000615 54 0 0.0 0.0 0.00 0.00 0.00 43 1008.9
20260503000536 54 360 0.0 0.0 0.00 0.00 0.00 43 1008.8
20260503000408 54 0 0.0 0.0 0.00 0.00 0.00 43 1008.9
20260503000311 54 0 0.0 0.0 0.00 0.00 0.00 42 1008.9
20260503000207 54 0 0.0 1.0 0.00 0.00 0.00 43 1008.9
20260503000126 54 0 0.0 1.0 0.00 0.00 0.00 43 1008.8
20260503000121 54 0 0.0 1.0 0.00 0.00 0.00 43 1008.9
20260503000113 54 0 0.0 1.0 0.00 0.00 0.00 43 1008.9
20260503000022 54 360 0.0 1.0 0.00 0.00 0.00 43 1008.7
20260502235903 54 0 0.0 1.0 0.00 0.00 0.00 43 1008.8
20260502235801 54 0 0.0 1.0 0.00 0.00 0.00 42 1008.9
20260502235734 55 0 0.0 1.0 0.00 0.00 0.00 42 1008.8
20260502235730 55 0 0.0 1.0 0.00 0.00 0.00 43 1008.8
20260502235725 54 0 0.0 1.0 0.00 0.00 0.00 43 1008.8
20260502235608 55 0 0.0 1.0 0.00 0.00 0.00 43 1008.8
20260502235521 55 360 0.0 1.0 0.00 0.00 0.00 43 1008.7
20260502235401 55 0 0.0 1.0 0.00 0.00 0.00 43 1008.8
20260502235301 55 0 0.0 1.0 0.00 0.00 0.00 42 1008.8
20260502235227 55 0 0.0 1.0 0.00 0.00 0.00 42 1008.7
20260502235106 55 0 0.0 1.0 0.00 0.00 0.00 42 1008.7
20260502235021 55 360 0.0 1.0 0.00 0.00 0.00 42 1008.6
20260502234859 55 0 0.0 1.0 0.00 0.00 0.00 42 1008.7
20260502234758 55 0 0.0 1.0 0.00 0.00 0.00 41 1008.7
20260502234730 55 0 0.0 0.0 0.00 0.00 0.00 41 1008.7
20260502234726 55 0 0.0 0.0 0.00 0.00 0.00 41 1008.7
20260502234721 55 0 0.0 1.0 0.00 0.00 0.00 42 1008.7
20260502234605 55 0 0.0 0.0 0.00 0.00 0.00 41 1008.7
20260502234521 55 360 0.0 0.0 0.00 0.00 0.00 41 1008.6
20260502234409 55 0 0.0 0.0 0.00 0.00 0.00 40 1008.7
20260502234404 55 0 0.0 0.0 0.00 0.00 0.00 41 1008.7
20260502234155 55 0 0.0 1.0 0.00 0.00 0.00 40 1008.7
20260502234054 55 0 0.0 1.0 0.00 0.00 0.00 40 1008.7
20260502234033 55 0 0.0 1.0 0.00 0.00 0.00 40 1008.7
20260502234021 55 360 0.0 1.0 0.00 0.00 0.00 40 1008.5
20260502233954 55 0 0.0 1.0 0.00 0.00 0.00 40 1008.6
20260502233853 55 0 0.0 1.0 0.00 0.00 0.00 40 1008.6
20260502233753 55 0 0.0 1.0 0.00 0.00 0.00 41 1008.6
20260502233652 55 0 0.0 1.0 0.00 0.00 0.00 40 1008.6
20260502233531 55 0 0.0 1.0 0.00 0.00 0.00 41 1008.6
20260502233521 55 360 0.0 1.0 0.00 0.00 0.00 41 1008.5
20260502233451 55 0 0.0 1.0 0.00 0.00 0.00 41 1008.6
20260502233349 55 0 0.0 1.0 0.00 0.00 0.00 41 1008.6
20260502233249 55 0 0.0 1.0 0.00 0.00 0.00 40 1008.5
20260502233204 56 0 0.0 0.0 0.00 0.00 0.00 41 1008.5
20260502233159 55 0 0.0 0.0 0.00 0.00 0.00 40 1008.5
20260502233030 56 0 0.0 0.0 0.00 0.00 0.00 41 1008.5
20260502233021 56 360 0.0 0.0 0.00 0.00 0.00 41 1008.4
20260502232949 56 0 0.0 0.0 0.00 0.00 0.00 40 1008.5
20260502232906 56 0 0.0 0.0 0.00 0.00 0.00 40 1008.5
20260502232900 56 0 0.0 0.0 0.00 0.00 0.00 40 1008.5
20260502232744 56 0 0.0 1.0 0.00 0.00 0.00 40 1008.5
20260502232647 56 0 0.0 1.0 0.00 0.00 0.00 40 1008.4
20260502232634 56 0 0.0 1.0 0.00 0.00 0.00 40 1008.5
20260502232521 56 360 0.0 0.0 0.00 0.00 0.00 40 1008.4
20260502232459 56 0 0.0 1.0 0.00 0.00 0.00 40 1008.5
20260502232454 56 0 0.0 1.0 0.00 0.00 0.00 41 1008.5
20260502232252 56 0 0.0 1.0 0.00 0.00 0.00 40 1008.4
20260502232245 56 0 0.0 1.0 0.00 0.00 0.00 40 1008.5
20260502232144 56 0 0.0 1.0 0.00 0.00 0.00 41 1008.5
20260502232132 56 0 0.0 1.0 0.00 0.00 0.00 40 1008.4
20260502232021 56 360 0.0 0.0 0.00 0.00 0.00 40 1008.3
20260502231944 56 0 0.0 1.0 0.00 0.00 0.00 39 1008.4
20260502231919 56 0 0.0 1.0 0.00 0.00 0.00 39 1008.4
20260502231807 56 0 0.0 0.0 0.00 0.00 0.00 39 1008.5
20260502231802 56 0 0.0 1.0 0.00 0.00 0.00 39 1008.5
20260502231524 56 0 0.0 0.0 0.00 0.00 0.00 39 1008.5
20260502231521 56 360 0.0 0.0 0.00 0.00 0.00 39 1008.4
20260502231443 56 0 0.0 0.0 0.00 0.00 0.00 40 1008.5
20260502231342 56 0 0.0 0.0 0.00 0.00 0.00 41 1008.5
20260502231241 56 0 0.0 0.0 0.00 0.00 0.00 41 1008.5
20260502231141 56 0 0.0 0.0 0.00 0.00 0.00 39 1008.5
20260502231022 56 0 0.0 0.0 0.00 0.00 0.00 39 1008.5
20260502230939 56 0 0.0 0.0 0.00 0.00 0.00 39 1008.6
20260502230853 56 0 0.0 1.0 0.00 0.00 0.00 39 1008.6
20260502230847 56 0 0.0 1.0 0.00 0.00 0.00 39 1008.6
20260502230638 56 0 0.0 1.0 0.00 0.00 0.00 39 1008.7
20260502230521 56 0 0.0 2.0 0.00 0.00 0.00 39 1008.7
20260502230436 57 0 0.0 2.0 0.00 0.00 0.00 39 1008.6
20260502230336 57 0 0.0 2.0 0.00 0.00 0.00 39 1008.6
20260502230236 57 0 0.0 2.0 0.00 0.00 0.00 38 1008.6
20260502230135 57 0 0.0 2.0 0.00 0.00 0.00 39 1008.6
20260502230021 57 360 0.0 2.0 0.00 0.00 0.00 39 1008.5
20260502225932 57 0 0.0 2.0 0.00 0.00 0.00 39 1008.6
20260502225901 57 0 0.0 2.0 0.00 0.00 0.00 38 1008.5
20260502225749 57 0 0.0 2.0 0.00 0.00 0.00 38 1008.5
20260502225743 57 0 0.0 2.0 0.00 0.00 0.00 38 1008.6
20260502225734 57 0 0.0 2.0 0.00 0.00 0.00 37 1008.5
20260502225521 57 360 2.0 2.0 0.00 0.00 0.00 38 1008.5
20260502225430 57 0 0.0 1.0 0.00 0.00 0.00 39 1008.6
20260502225330 57 0 0.0 0.0 0.00 0.00 0.00 39 1008.5
20260502225229 57 0 0.0 0.0 0.00 0.00 0.00 40 1008.5
20260502225129 57 0 0.0 0.0 0.00 0.00 0.00 39 1008.5
20260502225029 57 0 0.0 0.0 0.00 0.00 0.00 39 1008.5
20260502225021 57 360 0.0 0.0 0.00 0.00 0.00 39 1008.4
20260502225018 57 0 0.0 0.0 0.00 0.00 0.00 39 1008.5
20260502224928 57 0 0.0 0.0 0.00 0.00 0.00 40 1008.5
20260502224828 57 0 0.0 0.0 0.00 0.00 0.00 41 1008.5
20260502224727 57 0 0.0 0.0 0.00 0.00 0.00 39 1008.5
20260502224626 57 0 0.0 0.0 0.00 0.00 0.00 39 1008.5
20260502224521 57 360 0.0 0.0 0.00 0.00 0.00 39 1008.4
20260502224518 57 0 0.0 0.0 0.00 0.00 0.00 39 1008.5
20260502224426 57 0 0.0 0.0 0.00 0.00 0.00 39 1008.5
20260502224325 57 0 0.0 0.0 0.00 0.00 0.00 39 1008.5
20260502224225 57 0 0.0 0.0 0.00 0.00 0.00 39 1008.5
20260502224125 57 0 0.0 0.0 0.00 0.00 0.00 38 1008.5
20260502224021 57 360 0.0 0.0 0.00 0.00 0.00 39 1008.4
20260502224016 57 0 0.0 0.0 0.00 0.00 0.00 39 1008.5
20260502223923 57 0 0.0 0.0 0.00 0.00 0.00 39 1008.5
20260502223822 57 0 0.0 0.0 0.00 0.00 0.00 38 1008.5
20260502223722 57 0 0.0 0.0 0.00 0.00 0.00 38 1008.5
20260502223648 57 0 0.0 0.0 0.00 0.00 0.00 38 1008.5
20260502223528 57 0 0.0 0.0 0.00 0.00 0.00 38 1008.5
20260502223522 57 360 0.0 0.0 0.00 0.00 0.00 38 1008.4
20260502223320 58 0 0.0 3.0 0.00 0.00 0.00 38 1008.4
20260502223244 58 0 0.0 3.0 0.00 0.00 0.00 38 1008.3
20260502223131 58 0 0.0 3.0 0.00 0.00 0.00 38 1008.4
20260502223021 58 360 0.0 3.0 0.00 0.00 0.00 38 1008.3
20260502223018 58 0 0.0 3.0 0.00 0.00 0.00 38 1008.4
20260502222930 58 0 0.0 8.0 0.00 0.00 0.00 38 1008.4
20260502222925 58 0 0.0 3.0 0.00 0.00 0.00 38 1008.4
20260502222715 58 0 0.0 8.0 0.00 0.00 0.00 39 1008.4
20260502222615 58 0 0.0 8.0 0.00 0.00 0.00 39 1008.4
20260502222536 58 360 0.0 8.0 0.00 0.00 0.00 36 1008.2
20260502222518 58 0 0.0 8.0 0.00 0.00 0.00 37 1008.4
20260502222512 58 0 0.0 8.0 0.00 0.00 0.00 36 1008.4